Weather History for Burlington, CO

Change the Weather History Date:

Saturday, August 17, 2013

  Actual Average Record
Temperature  
Mean Temperature 73 °F 72 °F  
Max Temperature 80 °F 86 °F 100 °F (1924)
Min Temperature 65 °F 58 °F 47 °F (1944)
Cooling Degree Days 7    
Growing Degree Days 22 (Base 50)    
Moisture  
Dew Point 64 °F    
Average Humidity 85    
Maximum Humidity 100    
Minimum Humidity 60    
Precipitation  
Precipitation 0.00 in 0.08 in 0.86 in (1938)
Month to date precipitation 1.86 1.37  
Year to date precipitation 10.39 13.11  
Sea Level Pressure  
Sea Level Pressure 30.03 in    
Wind  
Wind Speed 11 mph (SSE)    
Max Wind Speed 17 mph    
Max Gust Speed 25 mph    
Visibility 7 miles    
Events      
T = Trace of Precipitation, MM = Missing Value Source: NWS Daily Summary

Daily Weather History Graph

Daily Weather History Graph

Search for Another Location

Airport:

Trip Planner

Search our weather history database for the weather conditions in past years. The results will help you decide how hot, cold, wet, or windy it might be!

Date:

Astronomy

Aug. 17, 2013 Rise Set
Actual Time 6:04 AM MDT 7:41 PM MDT
Civil Twilight 5:35 AM MDT 8:09 PM MDT
Nautical Twilight 5:01 AM MDT 8:43 PM MDT
Astronomical Twilight 4:24 AM MDT 9:20 PM MDT
Moon 4:58 PM MDT (8/17) 2:10 AM MDT (8/17)
Length of Visible Light 14h 33m
Length of Day
13h 37m
Waxing Gibbous, 85% of the Moon is Illuminated
Aug 17
Waxing Gibbous
Aug 20
Full
Aug 28
Last Quarter
Sep 5
New
Sep 12
First Quarter

Hourly Weather History & Observations

Time (MDT) Temp. Heat Index Dew Point Humidity Pressure Visibility Wind Dir Wind Speed Gust Speed Precip Events Conditions
12:53 AM 66.0 °F - 64.0 °F 93% 30.02 in 7.0 mi SSE 6.9 mph - N/A   Clear
1:53 AM 64.9 °F - 63.0 °F 93% 30.01 in 5.0 mi SSE 10.4 mph - N/A   Clear
2:17 AM 64.4 °F - 62.6 °F 94% 30.16 in 5.0 mi SSE 10.4 mph - N/A   Scattered Clouds
2:31 AM 64.4 °F - 62.6 °F 94% 30.16 in 5.0 mi SSE 10.4 mph - N/A   Mostly Cloudy
2:53 AM 64.9 °F - 63.0 °F 93% 29.99 in 5.0 mi SSE 15.0 mph - N/A   Mostly Cloudy
3:53 AM 64.9 °F - 63.0 °F 93% 29.98 in 5.0 mi SSE 13.8 mph - N/A   Overcast
4:00 AM 64.4 °F - 62.6 °F 94% 30.14 in 4.0 mi South 13.8 mph - N/A   Overcast
4:53 AM 64.9 °F - 63.0 °F 93% 29.97 in 5.0 mi South 12.7 mph - N/A   Overcast
5:00 AM 64.4 °F - 62.6 °F 94% 30.13 in 5.0 mi South 15.0 mph - N/A   Overcast
5:53 AM 64.9 °F - 63.0 °F 93% 29.98 in 6.0 mi South 10.4 mph - N/A   Overcast
6:53 AM 64.9 °F - 62.1 °F 90% 30.00 in 4.0 mi South 10.4 mph - N/A   Overcast
7:53 AM 64.9 °F - 62.1 °F 90% 30.01 in 5.0 mi SSE 9.2 mph - N/A   Overcast
8:53 AM 66.0 °F - 63.0 °F 90% 30.03 in 5.0 mi SSE 10.4 mph - N/A   Overcast
9:53 AM 66.9 °F - 63.0 °F 87% 30.03 in 6.0 mi SE 9.2 mph - N/A   Overcast
10:53 AM 68.0 °F - 63.0 °F 84% 30.03 in 8.0 mi SE 12.7 mph 17.3 mph N/A   Overcast
11:50 AM 71.6 °F - 64.4 °F 78% 30.16 in 10.0 mi South 10.4 mph - N/A   Overcast
11:53 AM 71.1 °F - 64.0 °F 78% 30.02 in 10.0 mi South 10.4 mph - N/A   Overcast
12:17 PM 73.4 °F - 64.4 °F 73% 30.15 in 10.0 mi SSE 8.1 mph - N/A   Partly Cloudy
12:53 PM 75.9 °F - 64.9 °F 69% 29.99 in 10.0 mi SSE 6.9 mph - N/A   Clear
1:53 PM 78.1 °F - 64.9 °F 64% 29.97 in 10.0 mi SSE 12.7 mph - N/A   Clear
2:53 PM 80.1 °F 81.9 °F 64.9 °F 60% 29.95 in 10.0 mi SSE 13.8 mph 21.9 mph N/A   Clear
3:53 PM 80.1 °F 81.9 °F 64.9 °F 60% 29.95 in 10.0 mi SSE 13.8 mph 20.7 mph N/A   Clear
4:53 PM 79.0 °F - 64.0 °F 60% 29.94 in 10.0 mi SE 16.1 mph 21.9 mph N/A   Clear
5:53 PM 77.0 °F - 64.9 °F 66% 29.93 in 10.0 mi SE 16.1 mph 25.3 mph N/A   Clear
6:53 PM 75.0 °F - 64.9 °F 71% 29.95 in 10.0 mi SE 15.0 mph - N/A   Clear
7:53 PM 71.1 °F - 64.9 °F 81% 29.97 in 10.0 mi SE 9.2 mph - N/A   Clear
8:53 PM 69.1 °F - 64.0 °F 84% 29.99 in 10.0 mi SSE 12.7 mph - N/A   Clear
9:53 PM 68.0 °F - 64.0 °F 87% 30.00 in 10.0 mi SSE 12.7 mph - N/A   Clear
10:53 PM 64.9 °F - 63.0 °F 93% 30.01 in 7.0 mi SSE 10.4 mph - N/A   Clear
11:17 PM 64.4 °F - 62.6 °F 94% 30.14 in 6.0 mi SSE 11.5 mph - N/A   Scattered Clouds
11:26 PM 64.4 °F - 64.4 °F 100% 30.14 in 6.0 mi SSE 16.1 mph 21.9 mph N/A   Mostly Cloudy
11:34 PM 64.4 °F - 64.4 °F 100% 30.13 in 6.0 mi SSE 16.1 mph 21.9 mph N/A   Overcast
11:53 PM 64.9 °F - 64.0 °F 97% 30.00 in 5.0 mi SSE 17.3 mph 23.0 mph N/A   Overcast